[[{"header":{"parameterUnit":"m.s-1","parameterCategory":1,"la1":30.2991,"la2":30.254,"lo1":-89.0895,"lo2":-89.0444,"dy":0.0017,"dx":0.0017,"nx":28,"ny":28,"refTime":"2024-06-23T03:00:00:Z","depth":0,"parameterNumber":2,"parameterNumberName":"U-component_of_WINDS"},"data":[0,0,0,0,0,0,0,0,0,0,0,0,0,0,0,0,0,0,0,0,0,0,0,0,0,0,0,0,0,0,0,0,0,0,0,0,0,0,0,0,0,0,0,0,0,0,0,0,0,0,0,0,0,0,0,0,0,0,-0.2019,-0.2018,0,-0.1919,-0.1918,-0.1917,-0.1856,-0.1856,-0.1856,-0.1855,-0.1753,-0.175,-0.1748,0,0,0,0,0,0,0,0,0,0,0,0,0,-0.2158,-0.2156,-0.2019,-0.2018,-0.2016,-0.1919,-0.1918,-0.1916,-0.1856,-0.1856,-0.1856,-0.1855,-0.1753,-0.1751,-0.1748,0,0,0,0,0,0,0,0,0,0,0,0,0,-0.2082,-0.2155,-0.2019,-0.1975,-0.197,-0.1919,-0.1918,-0.1916,-0.1856,-0.1856,-0.1856,-0.1855,-0.1754,-0.1751,-0.1747,-0.1733,0,0,-0.1736,-0.1734,0,0,0,0,0,0,0,0,-0.2087,-0.2077,-0.1982,-0.1978,-0.1972,-0.19,-0.1929,-0.1855,-0.1857,-0.1899,-0.1855,-0.1855,-0.1802,-0.1794,-0.1776,-0.1728,-0.1724,-0.1736,-0.1733,-0.1732,-0.1731,0,0,0,0,0,0,0,-0.2092,-0.2081,-0.1979,-0.1981,-0.1975,-0.196,-0.1949,-0.1915,-0.1854,-0.1896,-0.1891,-0.188,-0.1799,-0.178,-0.1774,-0.1722,-0.1736,-0.1732,-0.173,-0.1729,-0.166,-0.166,0,0,0,0,0,0,-0.2104,-0.2086,-0.1982,-0.1976,-0.2029,-0.1958,-0.1945,-0.1923,-0.1854,-0.1844,-0.1881,-0.1878,-0.1787,-0.1778,-0.177,-0.175,-0.1732,-0.1728,-0.1726,-0.1659,-0.166,-0.166,0,0,0,0,0,0,-0.2107,-0.2096,-0.1986,-0.203,-0.2015,-0.1956,-0.1932,-0.1922,-0.1903,-0.1843,-0.1832,-0.1872,-0.1786,-0.1775,-0.1743,-0.1746,-0.1727,-0.1723,-0.1659,-0.1659,-0.166,-0.171,0,0,0,0,0,0,-0.2112,-0.2097,-0.2091,-0.203,-0.2013,-0.1961,-0.1932,-0.192,-0.1897,-0.1892,-0.1833,-0.1822,-0.1785,-0.1749,-0.174,-0.174,-0.172,-0.1658,-0.1659,-0.166,-0.1708,-0.1712,-0.1716,0,0,0,0,0,-0.2117,-0.2108,-0.2091,-0.2079,-0.2004,-0.1962,-0.1952,-0.1909,-0.1897,-0.1891,-0.1853,-0.1824,-0.1747,-0.1746,-0.1735,-0.1735,-0.1658,-0.1659,-0.166,-0.1706,-0.1711,-0.1716,0,0,0,0,0,0,-0.217,-0.2099,-0.2079,-0.2051,-0.2013,-0.1952,-0.1942,-0.1916,-0.188,-0.1877,-0.1825,-0.1812,-0.1786,-0.1757,-0.1757,-0.1718,-0.1699,-0.1698,-0.1738,-0.1743,-0.1747,-0.1755,-0.1717,0,0,0,0,0,-0.2179,-0.215,-0.209,-0.2071,-0.2053,-0.2001,-0.1981,-0.1952,-0.191,-0.1894,-0.1853,-0.1814,-0.1781,-0.176,-0.1726,-0.1703,-0.169,-0.1697,-0.1702,-0.1705,-0.1705,-0.1692,-0.1695,-0.1663,-0.1663,-0.1663,0,0,-0.2196,-0.2154,-0.2139,-0.2081,-0.2048,-0.202,-0.1988,-0.1959,-0.1939,-0.1889,-0.1857,-0.1826,-0.1779,-0.1752,-0.1738,-0.1727,-0.1711,-0.1706,-0.171,-0.1707,-0.1693,-0.1696,-0.1699,-0.1663,-0.1663,-0.1663,0,0,-0.2213,-0.2178,-0.2159,-0.2127,-0.2078,-0.2044,-0.2039,-0.1982,-0.196,-0.1927,-0.189,-0.1865,-0.1808,-0.1777,-0.1754,-0.1761,-0.1735,-0.1752,-0.1773,-0.1761,-0.1764,-0.1766,-0.177,-0.1772,-0.1752,-0.1752,-0.1752,0,-0.2241,-0.2198,-0.2152,-0.2127,-0.2103,-0.2057,-0.2038,-0.2009,-0.1952,-0.1937,-0.1925,-0.1855,-0.182,-0.1786,-0.1788,-0.177,-0.1764,-0.1758,-0.1767,-0.1769,-0.177,-0.1773,-0.1775,-0.1754,-0.1754,-0.1754,-0.1753,0,-0.2235,-0.2205,-0.2196,-0.2142,-0.2117,-0.2095,-0.2047,-0.2027,-0.2,-0.1967,-0.1935,-0.1892,-0.185,-0.1839,-0.1812,-0.1802,-0.1797,-0.1777,-0.1757,-0.1776,-0.1779,-0.1779,-0.1758,-0.1757,-0.1756,-0.1755,0,0,-0.2282,-0.2205,-0.2202,-0.2178,-0.2121,-0.2098,-0.2074,-0.2033,-0.2018,-0.198,-0.1959,-0.1914,-0.1896,-0.1869,-0.1839,-0.1828,-0.1839,-0.181,-0.1808,-0.1818,-0.1827,-0.1843,-0.1845,-0.1821,-0.1821,-0.1821,-0.1831,0,-0.2292,-0.2247,-0.2206,-0.2176,-0.215,-0.2107,-0.2086,-0.205,-0.2019,-0.1992,-0.1958,-0.1927,-0.1905,-0.1889,-0.1877,-0.1841,-0.184,-0.1839,-0.1802,-0.1802,-0.1816,-0.1846,-0.1862,-0.1874,-0.1832,-0.1832,-0.1832,0,-0.2297,-0.2262,-0.223,-0.2177,-0.2164,-0.2147,-0.2107,-0.2081,-0.2039,-0.2018,-0.199,-0.1958,-0.1932,-0.1915,-0.1879,-0.1879,-0.1861,-0.1841,-0.1841,-0.1836,-0.1818,-0.1843,-0.1876,-0.1878,-0.1832,-0.1832,-0.1832,0,-0.2337,-0.2281,-0.2255,-0.2235,-0.2173,-0.2162,-0.2136,-0.2093,-0.2072,-0.2037,-0.2023,-0.1985,-0.1965,-0.1937,-0.1896,-0.1887,-0.1865,-0.1844,-0.1847,-0.1849,-0.1845,-0.1846,-0.1877,-0.1833,-0.1832,-0.1832,-0.1832,0,-0.2352,-0.2334,-0.2272,-0.2256,-0.2235,-0.2189,-0.217,-0.214,-0.2103,-0.2081,-0.2042,-0.2022,-0.1969,-0.1944,-0.1912,-0.1888,-0.1878,-0.1861,-0.1853,-0.1865,-0.1867,-0.1853,-0.1852,-0.1833,-0.1833,-0.1833,-0.1833,0,-0.2393,-0.235,-0.2319,-0.2263,-0.2249,-0.2236,-0.2188,-0.2172,-0.2139,-0.2112,-0.2103,-0.2053,-0.202,-0.1977,-0.1931,-0.191,-0.189,-0.1877,-0.1905,-0.19,-0.1906,-0.1907,-0.193,-0.1931,-0.1886,-0.1886,-0.1887,0,-0.2406,-0.2391,-0.2334,-0.2317,-0.2292,-0.2264,-0.2242,-0.2197,-0.2176,-0.2128,-0.2118,-0.2083,-0.2052,-0.2003,-0.1963,-0.1928,-0.1914,-0.1924,-0.1908,-0.1922,-0.1916,-0.1917,-0.1916,-0.1929,-0.1929,-0.193,-0.193,0,-0.2434,-0.2414,-0.2384,-0.2347,-0.2323,-0.2291,-0.2258,-0.2246,-0.2194,-0.2173,-0.214,-0.2117,-0.2071,-0.2037,-0.1997,-0.197,-0.1942,-0.1936,-0.1935,-0.1947,-0.1965,-0.1957,-0.1917,-0.1935,-0.1935,-0.1935,-0.1934,-0.1934,-0.2462,-0.2448,-0.2406,-0.2374,-0.2345,-0.2315,-0.2298,-0.2263,-0.2235,-0.2194,-0.2169,-0.2138,-0.2098,-0.2042,-0.2016,-0.1992,-0.198,-0.1979,-0.1978,-0.1979,-0.1984,-0.1968,-0.1984,-0.1984,-0.1984,-0.1983,-0.1983,0,-0.249,-0.2461,-0.2432,-0.2388,-0.2363,-0.2339,-0.2302,-0.2283,-0.2256,-0.2221,-0.2192,-0.2156,-0.2123,-0.208,-0.2045,-0.2034,-0.202,-0.2026,-0.2027,-0.2022,-0.1995,-0.2,-0.2038,-0.2038,-0.2038,-0.2038,-0.2038,-0.2038,-0.2501,-0.2476,-0.2452,-0.2412,-0.2383,-0.2353,-0.2334,-0.2307,-0.2279,-0.2239,-0.2212,-0.2185,-0.2147,-0.2109,-0.2079,-0.2067,-0.2057,-0.2067,-0.2052,-0.2028,-0.2023,-0.2018,-0.2023,-0.2065,-0.2065,-0.208,-0.208,-0.208]},{"header":{"parameterUnit":"m.s-1","parameterCategory":1,"la1":30.2991,"la2":30.254,"lo1":-89.0895,"lo2":-89.0444,"dy":0.0017,"dx":0.0017,"nx":28,"ny":28,"refTime":"2024-06-23T03:00:00:Z","depth":0,"parameterNumber":3,"parameterNumberName":"V-component_of_WINDS"},"data":[0,0,0,0,0,0,0,0,0,0,0,0,0,0,0,0,0,0,0,0,0,0,0,0,0,0,0,0,0,0,0,0,0,0,0,0,0,0,0,0,0,0,0,0,0,0,0,0,0,0,0,0,0,0,0,0,0,0,3.9897,3.9897,0,3.988,3.988,3.988,3.9888,3.9888,3.9889,3.9889,3.9868,3.9867,3.9866,0,0,0,0,0,0,0,0,0,0,0,0,0,3.9932,3.9931,3.9897,3.9897,3.9897,3.988,3.988,3.988,3.9888,3.9888,3.9889,3.9889,3.9868,3.9867,3.9866,0,0,0,0,0,0,0,0,0,0,0,0,0,3.9916,3.9931,3.9897,3.9899,3.9899,3.988,3.988,3.988,3.9888,3.9888,3.9889,3.9889,3.9868,3.9867,3.9866,3.9844,0,0,3.9861,3.986,0,0,0,0,0,0,0,0,3.9917,3.9915,3.9899,3.9898,3.9898,3.9887,3.9885,3.9868,3.9887,3.9892,3.9889,3.989,3.9873,3.9871,3.9867,3.9843,3.9842,3.9861,3.986,3.9859,3.9859,0,0,0,0,0,0,0,3.9918,3.9916,3.989,3.9898,3.9898,3.9899,3.9898,3.9882,3.9879,3.9891,3.9892,3.989,3.9873,3.9868,3.9866,3.9841,3.9861,3.986,3.9859,3.9858,3.9799,3.9798,0,0,0,0,0,0,3.992,3.9917,3.9891,3.989,3.991,3.9898,3.9896,3.989,3.9879,3.9878,3.9889,3.989,3.987,3.9868,3.9866,3.984,3.9859,3.9858,3.9857,3.98,3.9799,3.9798,0,0,0,0,0,0,3.992,3.9917,3.9891,3.9903,3.99,3.9897,3.9889,3.9889,3.9884,3.9878,3.9877,3.9885,3.9871,3.9868,3.985,3.9839,3.9857,3.9856,3.9801,3.9799,3.9799,3.9787,0,0,0,0,0,0,3.9921,3.9918,3.991,3.9903,3.9899,3.9876,3.9889,3.9888,3.9882,3.9883,3.9873,3.9872,3.9871,3.9852,3.9848,3.9837,3.9855,3.9801,3.98,3.9799,3.9789,3.9786,3.9784,0,0,0,0,0,3.9923,3.9906,3.9909,3.9906,3.989,3.9876,3.9874,3.9874,3.9881,3.9873,3.9869,3.9873,3.9841,3.985,3.9846,3.9834,3.9802,3.98,3.9799,3.979,3.9787,3.9784,0,0,0,0,0,0,3.991,3.9905,3.9909,3.989,3.9884,3.9877,3.9867,3.987,3.9861,3.9862,3.9861,3.9859,3.984,3.9836,3.9845,3.9813,3.9822,3.982,3.9817,3.9814,3.9811,3.9813,3.9854,0,0,0,0,0,3.9905,3.9896,3.9892,3.9875,3.9872,3.987,3.9864,3.9865,3.9858,3.9854,3.9849,3.9841,3.9829,3.9821,3.981,3.9788,3.9786,3.9779,3.9776,3.9774,3.9772,3.9761,3.9757,3.9793,3.9793,3.9793,0,0,3.9895,3.9891,3.9885,3.9873,3.9868,3.9857,3.9868,3.9855,3.9847,3.9852,3.9835,3.9831,3.9822,3.9802,3.9793,3.9797,3.9762,3.9772,3.9771,3.9769,3.9759,3.9755,3.9752,3.9792,3.9792,3.9792,0,0,3.987,3.9867,3.9853,3.9849,3.9842,3.9841,3.9838,3.9831,3.9829,3.9813,3.9817,3.9806,3.9786,3.9779,3.9773,3.9748,3.9751,3.9744,3.9731,3.972,3.9718,3.9715,3.9706,3.9703,3.9742,3.9742,3.9742,0,3.9858,3.9843,3.9845,3.9833,3.9828,3.9834,3.982,3.9815,3.9804,3.98,3.9805,3.9781,3.9775,3.9754,3.9748,3.9743,3.9739,3.9745,3.9718,3.9715,3.9713,3.9705,3.9701,3.9741,3.9741,3.9741,3.9741,0,3.9828,3.9817,3.9807,3.9798,3.9792,3.9778,3.9778,3.9771,3.9773,3.9771,3.9754,3.9748,3.9736,3.9731,3.9732,3.971,3.9713,3.9718,3.9728,3.9709,3.9701,3.9698,3.974,3.974,3.9741,3.9741,0,0,3.9794,3.9788,3.9784,3.9781,3.9774,3.9766,3.9753,3.9743,3.9737,3.9729,3.9718,3.9701,3.9707,3.97,3.97,3.9691,3.9671,3.9697,3.9697,3.9692,3.9647,3.9644,3.964,3.9674,3.9673,3.9672,3.9648,0,3.9769,3.9748,3.975,3.973,3.972,3.9726,3.9715,3.971,3.9708,3.9698,3.9696,3.9685,3.9692,3.9688,3.9679,3.9676,3.9662,3.9677,3.9662,3.9662,3.9664,3.9636,3.9631,3.9609,3.9645,3.9645,3.9644,0,3.9737,3.973,3.9709,3.9705,3.9701,3.9691,3.9683,3.9674,3.9668,3.9667,3.9661,3.9663,3.9649,3.966,3.9641,3.9651,3.9645,3.9643,3.9642,3.964,3.9652,3.9633,3.9601,3.9598,3.9639,3.964,3.964,0,3.9714,3.97,3.9686,3.9683,3.9678,3.967,3.9668,3.9662,3.9657,3.9649,3.9645,3.9635,3.9629,3.9621,3.9621,3.9628,3.9602,3.9612,3.96,3.96,3.9594,3.9594,3.9561,3.959,3.959,3.959,3.959,0,3.9686,3.9673,3.9676,3.9667,3.9652,3.9655,3.964,3.9638,3.9634,3.9624,3.9629,3.9619,3.9619,3.961,3.9609,3.9594,3.9591,3.959,3.9589,3.9589,3.9589,3.9585,3.9586,3.9589,3.959,3.959,3.959,0,3.9658,3.9659,3.9645,3.9642,3.9641,3.963,3.9627,3.9619,3.9618,3.9606,3.9603,3.9602,3.9591,3.959,3.9576,3.9576,3.9557,3.9559,3.956,3.956,3.9548,3.955,3.9511,3.9506,3.9539,3.9538,3.9538,0,3.964,3.963,3.9627,3.9622,3.9619,3.961,3.9605,3.9607,3.9601,3.9594,3.9586,3.9576,3.9568,3.955,3.9547,3.9537,3.9538,3.9526,3.9537,3.9537,3.9538,3.9539,3.9538,3.9523,3.9523,3.9522,3.9522,0,3.9607,3.9609,3.9602,3.9595,3.9589,3.9583,3.9578,3.9573,3.9575,3.9568,3.9558,3.9552,3.9539,3.9529,3.9519,3.9516,3.9519,3.9519,3.9516,3.9515,3.9516,3.9516,3.9554,3.952,3.952,3.952,3.952,3.952,3.9584,3.9576,3.9573,3.9565,3.9561,3.9557,3.9549,3.9548,3.954,3.9531,3.9533,3.9522,3.9516,3.9504,3.95,3.949,3.9494,3.949,3.9488,3.9487,3.9486,3.9518,3.9488,3.9488,3.9488,3.9489,3.9489,0,3.9551,3.955,3.9543,3.9537,3.953,3.9536,3.9531,3.9525,3.9515,3.9511,3.9503,3.9492,3.9482,3.9479,3.947,3.9463,3.9464,3.946,3.946,3.946,3.9483,3.9487,3.9459,3.9459,3.9459,3.9459,3.9459,3.9459,3.9534,3.9521,3.9523,3.9508,3.9507,3.9497,3.9494,3.9489,3.9486,3.9473,3.9466,3.9465,3.946,3.9451,3.9442,3.9442,3.9438,3.9433,3.9433,3.9455,3.9458,3.9461,3.9464,3.9432,3.9432,3.9411,3.9411,3.941]}]]